Zurück zum Katalog

RESURS P5

AktivWissenschaftSSO
NORAD 62430·PAYLOAD·🇷🇺 Russia

Gestartet Dec 25, 2024 von Baikonur Cosmodrome

Loading…

Nächste Überflüge (nächste 24 Stunden)

TLE

AktuellSource: Space-Track

Epoche: Sep 14, 2026, 13:39 UTC

1 62430U 24250A   26257.56924972  .00002432  00000-0  79912-4 0  9997
2 62430  97.2768 181.3879 0000820 111.0316 249.1014 15.32510926 96231

Verfolge RESURS P5 in Echtzeit mit AllMySat

Download on the App Store